Vorticity
nan nan nan nan nan nan nan nan nan nan nan nan nan nan nan nan nan nan nan nan nan nan nan nan nan nan nan nan nan nan nan nan nan nan nan nan nan nan nan nan nan nan nan nan nan
nan 8 9 9 9 8 8 7 6 6 6 6 6 6 7 9 15 13 17 10 11 8 4 7 8 6 1 3 6 2 8 6 3 10 10 4 4 7 5 6 10 13 12 6 nan
nan 8 8 9 9 9 8 7 7 6 6 7 7 7 7 10 20 21 9 7 6 8 3 4 5 4 2 9 8 10 15 7 5 3 11 10 6 8 8 10 13 9 5 3 nan
nan 8 8 9 9 9 9 8 7 7 7 7 7 7 11 15 10 15 13 9 9 7 6 5 5 5 3 12 8 11 17 6 5 10 10 5 8 4 12 14 14 10 6 6 nan
nan 8 9 9 10 10 9 9 8 8 7 7 8 10 14 9 6 11 16 10 9 8 9 6 8 3 8 9 6 9 7 12 6 7 9 8 9 1 9 16 13 9 6 5 nan
nan 9 9 9 9 9 10 9 8 8 7 7 8 11 11 6 10 11 10 8 8 7 7 4 5 1 9 11 8 14 5 5 10 7 3 10 2 4 8 19 10 7 5 5 nan
nan 8 9 10 10 10 9 8 8 8 8 9 10 6 5 14 10 10 10 8 7 7 6 5 7 4 6 9 8 7 5 8 6 7 7 -3 4 8 8 6 7 6 7 7 nan
nan 8 9 10 10 9 9 9 8 9 10 9 9 5 8 9 12 18 9 9 9 9 7 9 2 6 9 11 11 2 -0 8 7 3 3 4 7 2 9 9 7 6 8 7 nan
nan 8 8 8 9 9 10 10 14 12 10 10 8 8 9 8 16 11 12 8 5 6 6 8 11 15 11 6 8 5 6 6 10 4 5 5 11 13 9 13 7 6 7 6 nan
nan 8 8 9 9 9 11 17 15 11 9 3 13 13 16 14 13 7 10 10 6 4 8 3 9 9 8 6 12 10 10 2 8 12 9 6 9 11 10 7 4 5 9 6 nan
nan 9 8 8 9 10 14 14 12 10 2 9 12 10 14 13 7 9 10 11 6 4 5 10 6 10 7 4 -0 4 0 9 20 23 6 6 12 9 7 7 0 7 9 6 nan
nan 9 10 10 11 12 9 -1 2 12 17 17 -1 9 14 9 5 10 6 3 9 7 7 7 10 4 5 10 -1 4 11 24 8 -0 6 13 10 10 7 4 1 5 5 15 nan
nan 8 10 11 16 17 3 6 3 14 16 16 12 11 10 4 10 12 3 5 10 8 9 2 10 9 12 6 9 7 12 9 2 9 4 6 9 9 8 9 5 2 3 9 nan
nan 10 10 12 12 8 14 7 5 11 17 14 12 12 15 7 15 8 5 6 11 12 7 4 14 14 7 5 9 13 10 2 13 15 9 -1 6 15 12 9 8 5 4 -5 nan
nan 11 14 7 8 7 8 5 11 11 16 10 9 11 14 7 8 12 8 6 9 8 8 12 9 6 6 10 6 4 9 -0 20 6 -1 9 4 18 15 10 12 10 5 6 nan
nan 9 17 16 8 8 3 11 13 11 9 10 8 12 6 15 7 10 5 7 16 14 3 11 9 13 10 7 6 2 9 11 6 5 15 13 1 21 12 14 10 12 9 8 nan
nan 14 10 5 10 11 10 6 10 18 11 13 9 9 10 11 15 7 8 8 6 10 10 9 10 4 13 11 8 6 6 7 9 9 7 14 15 9 22 27 17 10 9 11 nan
nan 25 14 4 5 9 10 11 7 10 11 11 17 13 12 12 6 7 7 9 9 9 5 6 9 9 8 7 4 12 5 3 5 2 10 6 8 14 15 11 19 12 13 11 nan
nan 24 12 14 7 5 7 9 16 12 13 8 5 17 3 7 11 12 8 6 14 6 9 15 11 16 5 6 6 10 7 -0 1 8 9 7 13 12 10 10 14 13 11 8 nan
nan 13 14 11 11 7 7 17 9 8 7 6 7 13 15 5 7 11 10 12 5 6 9 11 15 13 11 11 8 3 14 13 7 11 12 9 6 10 17 9 9 13 13 12 nan
nan 12 10 9 6 7 13 12 4 8 8 20 20 -6 9 11 14 21 5 4 13 13 5 8 13 14 10 6 8 11 3 6 12 12 7 -3 10 14 18 10 11 12 14 17 nan
nan 18 7 6 6 14 13 5 10 12 10 8 12 10 10 17 14 11 13 5 6 10 19 8 16 18 8 10 2 10 15 2 9 6 2 12 9 2 12 17 13 15 19 14 nan
nan 12 9 5 10 19 6 -0 14 10 12 13 8 6 11 11 6 8 14 10 9 5 8 21 10 -0 19 19 4 8 11 17 5 4 7 11 18 18 9 10 12 15 18 10 nan
nan 10 10 5 13 14 4 5 8 9 10 8 11 11 12 7 10 10 6 9 6 10 6 11 6 6 15 0 20 25 5 3 8 12 12 13 9 11 9 9 9 14 13 9 nan
nan 7 10 18 7 -2 12 10 12 16 5 8 7 8 16 18 11 9 8 9 7 6 6 5 10 17 6 1 3 13 28 10 4 4 8 -0 0 27 19 13 9 10 7 11 nan
nan 13 7 10 11 7 10 10 11 4 11 15 8 5 9 10 10 10 8 9 16 3 6 9 8 9 3 11 14 6 6 8 14 17 9 10 11 -1 20 21 13 10 9 8 nan
nan nan nan nan nan nan nan nan nan nan nan nan nan nan nan nan nan nan nan nan nan nan nan nan nan nan nan nan nan nan nan nan nan nan nan nan nan nan nan nan nan nan nan nan nan
CAPE
7 10 9 2 1 1 1 1 1 2 2 2 1 0 0 0 0 0 0 0 0 0 0 0 0 0 569 245 221 177 934 628 230 257 399 472 412 434 372 265 202 182 113 237 235
6 9 6 2 2 2 1 1 2 3 1 2 1 0 1 0 0 0 0 0 0 0 0 0 0 11 718 334 295 488 875 577 645 350 384 254 309 317 320 309 187 78 182 203 262
6 5 5 6 1 1 3 1 1 1 1 2 2 0 0 0 0 0 0 0 0 0 0 0 0 72 135 164 201 480 551 176 77 457 328 144 270 193 151 190 112 258 176 205 137
4 7 4 1 2 3 2 1 3 2 1 2 1 0 0 0 0 0 0 0 0 0 0 0 0 0 2 80 217 188 24 62 50 254 123 110 71 130 205 94 97 155 86 99 76
5 3 5 4 3 1 2 1 1 1 1 2 1 0 0 0 0 0 0 0 0 0 0 0 0 0 4 236 368 244 278 133 113 282 374 117 249 149 55 39 42 18 10 53 55
3 4 7 3 2 2 2 1 1 2 1 1 0 0 0 0 0 0 0 0 0 0 0 0 0 0 0 220 184 259 423 263 514 319 80 46 5 0 69 49 5 3 9 39 39
2 3 3 1 1 1 1 2 2 1 1 1 0 0 0 0 0 0 0 0 0 0 0 0 0 0 77 229 68 126 327 556 425 527 226 70 44 0 24 38 8 31 61 61 34
2 3 4 3 1 1 1 1 2 1 0 0 0 0 0 0 0 0 0 0 0 0 0 0 0 0 17 114 34 67 342 624 671 635 236 102 74 6 17 87 65 79 88 83 123
1 0 2 2 1 1 1 1 2 1 0 0 0 0 0 0 0 0 0 0 0 0 0 0 0 0 56 27 353 255 253 393 844 586 361 85 108 71 2 94 84 99 105 97 203
0 0 1 2 2 0 0 0 0 0 0 0 0 0 0 0 0 0 0 0 0 0 0 0 0 0 65 62 260 282 235 432 743 729 357 216 60 81 184 45 135 138 123 140 133
0 0 2 2 1 0 0 0 0 0 0 0 0 0 0 0 0 0 0 0 0 0 0 0 0 4 50 100 17 36 81 159 337 952 574 311 279 222 198 220 221 204 235 168 121
0 3 3 1 1 0 0 0 0 0 0 0 0 0 0 0 0 0 0 0 0 0 0 0 0 0 50 71 2 22 165 224 406 736 549 374 251 221 259 183 115 63 56 160 194
0 2 0 1 0 0 0 0 0 0 0 0 0 0 0 0 0 0 0 0 0 0 0 0 0 0 53 58 0 14 71 167 320 592 507 411 544 308 167 182 1 24 73 106 265
3 1 1 0 0 0 0 0 0 0 5 0 0 0 0 0 0 0 0 0 0 0 0 0 0 21 18 15 4 28 1 26 8 464 356 576 520 646 435 316 42 0 68 101 101
1 0 1 0 0 0 0 0 0 0 44 1 2 0 1 0 0 0 0 0 0 0 0 0 0 0 7 6 20 6 1 13 195 288 156 238 159 157 830 713 369 91 29 144 12
1 1 0 0 0 0 0 0 0 9 23 5 8 13 1 34 0 0 0 0 0 0 0 35 8 0 4 1 0 4 0 0 3 68 56 187 171 309 965 950 851 290 75 40 0
0 0 0 0 0 0 0 0 55 34 11 0 33 47 73 55 42 0 0 0 0 0 0 10 0 0 0 0 0 0 1 41 52 92 81 62 107 631 223 597 973 596 426 83 5
0 0 0 0 0 0 0 37 113 16 70 31 61 70 63 63 26 0 0 0 4 0 13 32 0 0 0 0 0 0 25 150 188 167 156 161 134 584 508 462 660 969 679 417 35
0 0 0 0 0 0 5 74 41 91 36 33 36 95 55 34 53 77 36 56 2 0 29 37 38 0 0 0 0 0 1 62 40 16 68 25 262 622 403 600 585 593 950 787 388
0 0 0 0 0 0 75 0 32 43 32 34 37 79 75 54 68 83 90 65 3 0 2 35 55 1 0 0 0 0 5 5 14 69 122 216 365 10 425 430 559 643 1031 811 882
0 0 0 0 0 38 53 35 31 15 28 52 76 76 33 56 37 75 59 29 19 0 0 28 18 14 0 0 0 0 0 1 29 46 69 135 463 516 652 570 723 765 823 968 899
0 0 0 0 26 99 53 16 3 30 15 10 43 65 45 39 72 53 45 58 0 2 0 2 44 86 26 0 0 13 0 1 22 19 9 9 143 128 320 688 762 822 1032 1059 1017
11 0 0 0 72 36 0 0 0 15 10 26 26 58 52 45 89 27 62 25 0 10 103 40 48 146 42 27 0 0 17 11 1 32 52 109 369 987 821 730 949 1004 1093 1280 1404
7 0 0 11 40 36 19 8 0 0 0 0 0 30 61 73 49 50 50 2 3 4 10 0 31 114 3 37 29 4 0 7 30 74 61 67 791 807 769 1008 1298 1208 1327 1211 1402
13 21 15 14 29 59 36 0 0 0 0 0 0 10 65 86 72 88 56 33 27 0 18 0 55 72 10 3 0 14 35 11 3 1 45 38 104 192 499 1010 1229 1457 1426 1312 1014
70 23 1 63 0 40 7 8 0 0 0 0 0 0 4 57 78 79 68 69 50 13 16 6 6 3 1 10 4 2 9 28 40 35 18 19 30 246 612 1276 1359 976 958 1109 1234
30 45 108 1 21 65 37 0 0 0 0 0 0 0 0 0 0 0 3 45 46 37 94 18 18 49 8 8 31 24 4 29 50 115 114 109 924 774 578 1694 1479 1034 832 984 897